Regional Weather Roundup
Issued by NWS

Home | Current Version | Previous Version | Text Only | Print | Product List | Glossary On
Versions: 1 2 3 4 5 6 7 8 9 10 11 12 13 14 15 16 17 18 19 20 21 22 23 24 25 26 27 28 29 30 31 32 33 34 35 36 37 38 39 40 41 42 43 44 45 46 47 48 49 50
000
ASUS43 KTOP 270359
RWRKS

WEATHER ROUNDUP FOR KANSAS
NATIONAL WEATHER SERVICE GOODLAND KS
1100 PM CDT TUE MAY 26 2015

NOTE:  "FAIR" INDICATES FEW OR NO CLOUDS BELOW 12,000 FEET WITH NO
SIGNIFICANT WEATHER AND/OR OBSTRUCTIONS TO VISIBILITY.

KSZ001>006-013>018-027>032-041>047-270500-
NORTHWEST KANSAS

CITY           SKY/WX    TMP DP  RH WIND       PRES   REMARKS
GOODLAND       PTCLDY    55  52  89 SE6       30.04R
HAYS           CLEAR     59  48  67 NE6       30.02R
HILL CITY      CLEAR     55  50  83 SE3       30.02R
RUSSELL        CLEAR     59  53  80 E8        30.01R
$$

KSZ061>065-074>080-084>089-270500-
SOUTHWEST KANSAS

CITY           SKY/WX    TMP DP  RH WIND       PRES   REMARKS
DODGE CITY     CLEAR     64  56  75 E7        30.02R
ELKHART          N/A     60  53  77 SE6         N/A
GARDEN CITY    PTCLDY    61  55  81 E7        30.02R
GREAT BEND     CLEAR     64  55  72 E6        30.01R
LIBERAL        PTCLDY    66  54  63 E7        30.04R
$$

KSZ066>073-081>083-090>101-270500-
SOUTHEAST KANSAS

CITY           SKY/WX    TMP DP  RH WIND       PRES   REMARKS
CHANUTE        PTCLDY    66  64  93 S6        29.96F
COFFEYVILLE    CLOUDY    66  65  96 CALM      29.96S
HUTCHINSON     MOCLDY    66  59  78 CALM      29.99R
NEWTON         PTCLDY    64  57  77 S6        30.01R
PARSONS        MOCLDY    65  64  97 CALM      29.98S
WICHITA INTL   PTCLDY    66  62  87 S3        29.97S
WICHITA JABRA  CLEAR     65  61  87 S6        29.97S
WINFIELD       MOCLDY    68  63  84 S3        29.97F
$$

KSZ007>012-019>026-033>040-048>060-102>105-270500-
NORTHEAST KANSAS

CITY           SKY/WX    TMP DP  RH WIND       PRES   REMARKS
CONCORDIA      MOCLDY    61  53  75 W6        30.00R
EMPORIA        CLEAR     64  59  83 SW7       29.97R
LAWRENCE       MOCLDY    64  61  90 NW3       29.95R
MANHATTAN      PTCLDY    61  57  87 W3        29.98R
OLATHE IND     MOCLDY    69  61  75 SW7       29.96R
OLATHE EXE     MOCLDY    69  62  78 SW5       29.95R
SALINA         CLEAR     63  56  78 CALM      30.00R
TOPEKA BILLARD PTCLDY    66  59  78 W6        29.96R
TOPEKA FORBES  PTCLDY    67  58  72 W8        29.95R
$$



USA.gov is the U.S. government's official web portal to all federal, state and local government web resources and services.